| time (UTC) | temp F | wind direction | speed MPH | gust MPH | rain 1hr in | rain 24hr in | rain mn in | humidity % | barometer mb |
| 20260901205123 | 87 | 120 | 1.0 | 2.0 | 0.00 | 0.00 | 0.00 | 75 | 983.3 |
| 20260901204619 | 87 | 164 | 0.0 | 2.0 | 0.00 | 0.00 | 0.00 | 72 | 983.3 |
| 20260901204113 | 87 | 310 | 2.0 | 2.0 | 0.00 | 0.00 | 0.00 | 72 | 983.2 |
| 20260901203613 | 88 | 53 | 1.0 | 3.0 | 0.00 | 0.00 | 0.00 | 72 | 983.6 |
| 20260901203108 | 89 | 193 | 2.0 | 2.0 | 0.00 | 0.00 | 0.00 | 74 | 983.4 |
| 20260901202608 | 88 | 213 | 2.0 | 4.0 | 0.00 | 0.00 | 0.00 | 73 | 983.7 |
| 20260901202105 | 89 | 76 | 2.0 | 2.0 | 0.00 | 0.00 | 0.00 | 78 | 983.6 |
| 20260901201600 | 88 | 218 | 0.0 | 0.0 | 0.00 | 0.00 | 0.00 | 75 | 983.7 |
| 20260901201059 | 87 | 164 | 0.0 | 0.0 | 0.00 | 0.00 | 0.00 | 78 | 983.6 |
| 20260901200558 | 87 | 109 | 0.0 | 0.0 | 0.00 | 0.00 | 0.00 | 77 | 983.8 |
| 20260901200053 | 87 | 110 | 1.0 | 1.0 | 0.00 | 0.00 | 0.00 | 78 | 983.9 |
| 20260901195551 | 87 | 109 | 0.0 | 1.0 | 0.00 | 0.00 | 0.00 | 77 | 983.8 |
| 20260901195046 | 87 | 106 | 1.0 | 2.0 | 0.00 | 0.00 | 0.00 | 78 | 983.9 |
| 20260901194541 | 86 | 247 | 0.0 | 0.0 | 0.00 | 0.00 | 0.00 | 77 | 983.9 |
| 20260901194037 | 86 | 220 | 0.0 | 1.0 | 0.00 | 0.00 | 0.00 | 82 | 983.8 |
| 20260901193536 | 86 | 226 | 0.0 | 1.0 | 0.00 | 0.00 | 0.00 | 82 | 983.8 |
| 20260901193032 | 86 | 108 | 0.0 | 1.0 | 0.00 | 0.00 | 0.00 | 79 | 983.9 |
| 20260901192526 | 86 | 102 | 1.0 | 2.0 | 0.00 | 0.00 | 0.00 | 80 | 983.7 |
| 20260901192022 | 86 | 111 | 0.0 | 1.0 | 0.00 | 0.00 | 0.00 | 79 | 983.6 |
| 20260901191518 | 87 | 129 | 0.0 | 0.0 | 0.00 | 0.00 | 0.00 | 79 | 984.1 |
| 20260901191014 | 87 | 141 | 0.0 | 2.0 | 0.00 | 0.00 | 0.00 | 75 | 984.0 |
| 20260901190509 | 87 | 111 | 0.0 | 1.0 | 0.00 | 0.00 | 0.00 | 78 | 983.9 |
| 20260901190008 | 86 | 114 | 0.0 | 1.0 | 0.00 | 0.00 | 0.00 | 80 | 984.0 |
| 20260901185507 | 86 | 85 | 1.0 | 3.0 | 0.00 | 0.00 | 0.00 | 79 | 984.0 |
| 20260901185006 | 87 | 132 | 0.0 | 4.0 | 0.00 | 0.00 | 0.00 | 77 | 984.2 |
| 20260901184501 | 86 | 168 | 0.0 | 3.0 | 0.00 | 0.00 | 0.00 | 76 | 984.4 |
| 20260901183957 | 87 | 114 | 1.0 | 2.0 | 0.00 | 0.00 | 0.00 | 73 | 984.4 |
| 20260901183451 | 88 | 240 | 1.0 | 1.0 | 0.00 | 0.00 | 0.00 | 74 | 984.6 |
| 20260901182947 | 87 | 134 | 2.0 | 3.0 | 0.00 | 0.00 | 0.00 | 73 | 984.6 |
| 20260901182442 | 87 | 237 | 2.0 | 3.0 | 0.00 | 0.00 | 0.00 | 76 | 984.7 |
| 20260901181937 | 87 | 101 | 1.0 | 1.0 | 0.00 | 0.00 | 0.00 | 73 | 984.7 |
| 20260901181432 | 87 | 119 | 1.0 | 3.0 | 0.00 | 0.00 | 0.00 | 76 | 985.1 |
| 20260901180930 | 87 | 162 | 2.0 | 2.0 | 0.00 | 0.00 | 0.00 | 78 | 985.0 |
| 20260901180430 | 89 | 157 | 1.0 | 2.0 | 0.00 | 0.00 | 0.00 | 72 | 984.9 |
| 20260901175928 | 87 | 2 | 1.0 | 4.0 | 0.00 | 0.00 | 0.00 | 73 | 985.2 |
| 20260901175423 | 87 | 72 | 2.0 | 3.0 | 0.00 | 0.00 | 0.00 | 76 | 985.4 |
| 20260901174913 | 86 | 51 | 1.0 | 3.0 | 0.00 | 0.00 | 0.00 | 75 | 985.3 |
| 20260901174408 | 86 | 114 | 1.0 | 2.0 | 0.00 | 0.00 | 0.00 | 77 | 985.4 |
| 20260901173904 | 86 | 111 | 4.0 | 4.0 | 0.00 | 0.00 | 0.00 | 75 | 985.4 |
| 20260901173359 | 86 | 106 | 0.0 | 2.0 | 0.00 | 0.00 | 0.00 | 75 | 985.3 |
| 20260901172855 | 86 | 220 | 0.0 | 1.0 | 0.00 | 0.00 | 0.00 | 76 | 985.3 |
| 20260901172354 | 86 | 315 | 1.0 | 3.0 | 0.00 | 0.00 | 0.00 | 75 | 985.4 |
| 20260901171852 | 85 | 163 | 1.0 | 3.0 | 0.00 | 0.00 | 0.00 | 76 | 985.4 |
| 20260901171352 | 86 | 154 | 2.0 | 3.0 | 0.00 | 0.00 | 0.00 | 78 | 985.3 |
| 20260901170850 | 87 | 115 | 1.0 | 2.0 | 0.00 | 0.00 | 0.00 | 77 | 985.3 |
| 20260901170346 | 86 | 122 | 3.0 | 4.0 | 0.00 | 0.00 | 0.00 | 75 | 985.3 |
| 20260901165839 | 86 | 5 | 1.0 | 3.0 | 0.00 | 0.00 | 0.00 | 76 | 985.4 |
| 20260901165334 | 86 | 226 | 1.0 | 6.0 | 0.00 | 0.00 | 0.00 | 74 | 985.3 |
| 20260901164831 | 87 | 240 | 2.0 | 7.0 | 0.00 | 0.00 | 0.00 | 74 | 985.2 |
| 20260901164325 | 87 | 253 | 2.0 | 7.0 | 0.00 | 0.00 | 0.00 | 72 | 984.9 |
| 20260901163820 | 87 | 222 | 3.0 | 6.0 | 0.00 | 0.00 | 0.00 | 77 | 984.8 |
| 20260901163315 | 87 | 342 | 3.0 | 4.0 | 0.00 | 0.00 | 0.00 | 75 | 984.8 |
| 20260901162810 | 88 | 200 | 1.0 | 4.0 | 0.00 | 0.00 | 0.00 | 75 | 984.8 |
| 20260901162309 | 86 | 117 | 3.0 | 3.0 | 0.00 | 0.00 | 0.00 | 75 | 985.0 |
| 20260901161808 | 86 | 82 | 3.0 | 6.0 | 0.00 | 0.00 | 0.00 | 77 | 985.0 |
| 20260901161303 | 86 | 209 | 4.0 | 7.0 | 0.00 | 0.00 | 0.00 | 76 | 985.0 |
| 20260901160758 | 86 | 102 | 3.0 | 3.0 | 0.00 | 0.00 | 0.00 | 78 | 985.0 |
| 20260901160254 | 86 | 101 | 4.0 | 7.0 | 0.00 | 0.00 | 0.00 | 78 | 984.9 |
| 20260901155753 | 86 | 156 | 2.0 | 3.0 | 0.00 | 0.00 | 0.00 | 79 | 984.9 |
| 20260901155248 | 85 | 158 | 2.0 | 4.0 | 0.00 | 0.00 | 0.00 | 79 | 984.9 |
| 20260901154744 | 85 | 231 | 2.0 | 6.0 | 0.00 | 0.00 | 0.00 | 80 | 984.9 |
| 20260901154238 | 85 | 125 | 1.0 | 2.0 | 0.00 | 0.00 | 0.00 | 79 | 984.8 |
| 20260901153734 | 85 | 103 | 4.0 | 6.0 | 0.00 | 0.00 | 0.00 | 79 | 985.0 |
| 20260901153233 | 84 | 124 | 1.0 | 2.0 | 0.00 | 0.00 | 0.00 | 80 | 985.0 |
| 20260901152732 | 84 | 122 | 2.0 | 6.0 | 0.00 | 0.00 | 0.00 | 81 | 985.0 |
| 20260901152231 | 84 | 115 | 1.0 | 4.0 | 0.00 | 0.00 | 0.00 | 81 | 984.8 |
| 20260901151726 | 84 | 81 | 3.0 | 3.0 | 0.00 | 0.00 | 0.00 | 82 | 984.9 |
| 20260901151221 | 84 | 87 | 2.0 | 3.0 | 0.00 | 0.00 | 0.00 | 83 | 985.0 |
| 20260901150721 | 83 | 110 | 3.0 | 3.0 | 0.00 | 0.00 | 0.00 | 82 | 984.8 |
| 20260901150219 | 83 | 94 | 3.0 | 4.0 | 0.00 | 0.00 | 0.00 | 84 | 985.2 |
| 20260901145717 | 82 | 67 | 2.0 | 4.0 | 0.00 | 0.00 | 0.00 | 85 | 985.2 |
| 20260901145217 | 81 | 222 | 1.0 | 3.0 | 0.00 | 0.00 | 0.00 | 85 | 985.2 |
| 20260901144712 | 81 | 79 | 2.0 | 3.0 | 0.00 | 0.00 | 0.00 | 86 | 985.1 |
| 20260901144207 | 82 | 122 | 1.0 | 3.0 | 0.00 | 0.00 | 0.00 | 85 | 985.2 |
| 20260901143702 | 82 | 113 | 0.0 | 2.0 | 0.00 | 0.00 | 0.00 | 85 | 985.3 |
| 20260901143159 | 81 | 142 | 3.0 | 4.0 | 0.00 | 0.00 | 0.00 | 83 | 985.4 |
| 20260901142655 | 81 | 108 | 1.0 | 3.0 | 0.00 | 0.00 | 0.00 | 87 | 985.4 |
| 20260901142154 | 80 | 120 | 2.0 | 4.0 | 0.00 | 0.00 | 0.00 | 87 | 985.4 |
| 20260901141649 | 80 | 91 | 4.0 | 4.0 | 0.00 | 0.00 | 0.00 | 87 | 985.3 |
| 20260901141149 | 79 | 93 | 2.0 | 2.0 | 0.00 | 0.00 | 0.00 | 90 | 985.3 |
| 20260901140648 | 78 | 103 | 0.0 | 2.0 | 0.00 | 0.00 | 0.00 | 92 | 985.5 |
| 20260901140147 | 78 | 87 | 1.0 | 3.0 | 0.00 | 0.00 | 0.00 | 91 | 985.6 |
| 20260901135642 | 79 | 76 | 1.0 | 2.0 | 0.00 | 0.00 | 0.00 | 90 | 985.4 |
| 20260901135137 | 78 | 85 | 0.0 | 2.0 | 0.00 | 0.00 | 0.00 | 93 | 985.4 |
| 20260901134633 | 78 | 106 | 2.0 | 2.0 | 0.00 | 0.00 | 0.00 | 93 | 985.5 |
| 20260901134128 | 77 | 109 | 0.0 | 2.0 | 0.00 | 0.00 | 0.00 | 95 | 985.5 |
| 20260901133627 | 76 | 93 | 1.0 | 2.0 | 0.00 | 0.00 | 0.00 | 97 | 985.5 |
| 20260901133125 | 76 | 104 | 1.0 | 1.0 | 0.00 | 0.00 | 0.00 | 99 | 985.4 |
| 20260901132620 | 75 | 78 | 0.0 | 2.0 | 0.00 | 0.00 | 0.00 | 99 | 985.6 |
| 20260901132120 | 74 | 111 | 0.0 | 0.0 | 0.00 | 0.00 | 0.00 | 98 | 985.4 |
| 20260901131619 | 74 | 110 | 0.0 | 0.0 | 0.00 | 0.00 | 0.00 | 99 | 985.7 |
| 20260901131114 | 73 | 77 | 0.0 | 0.0 | 0.00 | 0.00 | 0.00 | 98 | 985.5 |
| 20260901130610 | 73 | 76 | 0.0 | 0.0 | 0.00 | 0.00 | 0.00 | 98 | 985.6 |
| 20260901130108 | 73 | 64 | 0.0 | 0.0 | 0.00 | 0.00 | 0.00 | 96 | 985.6 |
| 20260901125606 | 73 | 64 | 0.0 | 0.0 | 0.00 | 0.00 | 0.00 | 96 | 985.6 |
| 20260901125102 | 71 | 221 | 0.0 | 0.0 | 0.00 | 0.00 | 0.00 | 99 | 985.5 |
| 20260901124601 | 71 | 221 | 0.0 | 0.0 | 0.00 | 0.00 | 0.00 | 99 | 985.5 |
| 20260901124056 | 70 | 226 | 0.0 | 0.0 | 0.00 | 0.00 | 0.00 | 99 | 985.6 |
| 20260901123546 | 69 | 226 | 0.0 | 0.0 | 0.00 | 0.00 | 0.00 | 99 | 985.7 |
| 20260901123045 | 69 | 226 | 0.0 | 0.0 | 0.00 | 0.00 | 0.00 | 99 | 985.7 |
| 20260901122544 | 69 | 226 | 0.0 | 0.0 | 0.00 | 0.00 | 0.00 | 99 | 985.6 |
| 20260901122037 | 68 | 226 | 0.0 | 0.0 | 0.00 | 0.00 | 0.00 | 99 | 985.5 |
| 20260901121532 | 68 | 227 | 0.0 | 0.0 | 0.00 | 0.00 | 0.00 | 99 | 985.6 |
| 20260901121027 | 67 | 227 | 0.0 | 0.0 | 0.00 | 0.00 | 0.00 | 99 | 985.5 |
| 20260901120527 | 67 | 227 | 1.0 | 2.0 | 0.00 | 0.00 | 0.00 | 99 | 985.5 |
| 20260901120023 | 66 | 226 | 0.0 | 0.0 | 0.00 | 0.00 | 0.00 | 99 | 985.4 |
| 20260901115517 | 66 | 226 | 0.0 | 0.0 | 0.00 | 0.00 | 0.00 | 99 | 985.4 |
| 20260901115015 | 66 | 226 | 0.0 | 0.0 | 0.00 | 0.00 | 0.00 | 99 | 985.4 |
| 20260901114510 | 65 | 226 | 0.0 | 0.0 | 0.00 | 0.00 | 0.00 | 99 | 985.3 |
| 20260901114008 | 65 | 226 | 0.0 | 0.0 | 0.00 | 0.00 | 0.00 | 99 | 985.2 |
| 20260901113507 | 65 | 226 | 0.0 | 0.0 | 0.00 | 0.00 | 0.00 | 99 | 985.1 |
| 20260901113003 | 65 | 226 | 0.0 | 0.0 | 0.00 | 0.00 | 0.00 | 99 | 985.1 |
| 20260901112458 | 65 | 226 | 0.0 | 0.0 | 0.00 | 0.00 | 0.00 | 99 | 985.1 |
| 20260901111953 | 65 | 226 | 0.0 | 0.0 | 0.00 | 0.00 | 0.00 | 99 | 985.0 |
| 20260901111451 | 64 | 226 | 0.0 | 0.0 | 0.00 | 0.00 | 0.00 | 99 | 985.1 |
| 20260901110949 | 64 | 226 | 0.0 | 0.0 | 0.00 | 0.00 | 0.00 | 99 | 985.0 |
| 20260901110445 | 65 | 227 | 0.0 | 0.0 | 0.00 | 0.00 | 0.00 | 99 | 985.0 |
| 20260901105941 | 65 | 226 | 0.0 | 0.0 | 0.00 | 0.00 | 0.00 | 99 | 985.0 |
| 20260901105437 | 64 | 226 | 0.0 | 0.0 | 0.00 | 0.00 | 0.00 | 99 | 984.7 |
| 20260901104932 | 65 | 226 | 0.0 | 0.0 | 0.00 | 0.00 | 0.00 | 99 | 984.8 |
| 20260901104427 | 65 | 226 | 0.0 | 0.0 | 0.00 | 0.00 | 0.00 | 99 | 984.7 |
| 20260901103923 | 64 | 226 | 0.0 | 0.0 | 0.00 | 0.00 | 0.00 | 99 | 984.6 |
| 20260901103423 | 64 | 226 | 0.0 | 0.0 | 0.00 | 0.00 | 0.00 | 99 | 984.6 |
| 20260901102918 | 64 | 226 | 0.0 | 0.0 | 0.00 | 0.00 | 0.00 | 99 | 984.7 |
| 20260901102418 | 65 | 226 | 0.0 | 0.0 | 0.00 | 0.00 | 0.00 | 99 | 984.6 |
| 20260901101913 | 65 | 226 | 0.0 | 0.0 | 0.00 | 0.00 | 0.00 | 99 | 984.5 |
| 20260901101409 | 65 | 226 | 0.0 | 0.0 | 0.00 | 0.00 | 0.00 | 99 | 984.5 |
| 20260901100908 | 65 | 226 | 0.0 | 0.0 | 0.00 | 0.00 | 0.00 | 99 | 984.3 |
| 20260901100403 | 65 | 226 | 0.0 | 0.0 | 0.00 | 0.00 | 0.00 | 99 | 984.3 |
| 20260901095902 | 65 | 226 | 0.0 | 0.0 | 0.00 | 0.00 | 0.00 | 99 | 984.3 |
| 20260901095400 | 65 | 226 | 0.0 | 0.0 | 0.00 | 0.00 | 0.00 | 99 | 984.3 |
| 20260901094854 | 65 | 226 | 0.0 | 0.0 | 0.00 | 0.00 | 0.00 | 99 | 984.3 |
| 20260901094348 | 65 | 226 | 0.0 | 0.0 | 0.00 | 0.00 | 0.00 | 99 | 984.4 |
| 20260901093843 | 65 | 226 | 0.0 | 0.0 | 0.00 | 0.00 | 0.00 | 99 | 984.4 |
| 20260901093342 | 65 | 226 | 0.0 | 0.0 | 0.00 | 0.00 | 0.00 | 99 | 984.3 |
| 20260901092838 | 65 | 226 | 0.0 | 0.0 | 0.00 | 0.00 | 0.00 | 99 | 984.4 |
| 20260901092334 | 65 | 226 | 0.0 | 0.0 | 0.00 | 0.00 | 0.00 | 99 | 984.5 |
| 20260901091831 | 65 | 226 | 0.0 | 0.0 | 0.00 | 0.00 | 0.00 | 99 | 984.2 |
| 20260901091330 | 65 | 226 | 0.0 | 0.0 | 0.00 | 0.00 | 0.00 | 99 | 984.4 |
| 20260901090825 | 65 | 226 | 0.0 | 0.0 | 0.00 | 0.00 | 0.00 | 99 | 984.3 |
| 20260901090320 | 65 | 226 | 0.0 | 0.0 | 0.00 | 0.00 | 0.00 | 99 | 984.3 |
| 20260901085816 | 65 | 226 | 0.0 | 0.0 | 0.00 | 0.00 | 0.00 | 99 | 984.3 |
| 20260901085316 | 65 | 226 | 0.0 | 0.0 | 0.00 | 0.00 | 0.00 | 99 | 984.4 |
| 20260901084812 | 65 | 226 | 0.0 | 0.0 | 0.00 | 0.00 | 0.00 | 99 | 984.3 |
| 20260901084308 | 65 | 226 | 0.0 | 0.0 | 0.00 | 0.00 | 0.00 | 99 | 984.3 |
| 20260901083809 | 65 | 226 | 0.0 | 0.0 | 0.00 | 0.00 | 0.00 | 99 | 984.5 |
| 20260901083308 | 65 | 226 | 0.0 | 0.0 | 0.00 | 0.00 | 0.00 | 99 | 984.3 |
| 20260901082807 | 66 | 226 | 0.0 | 0.0 | 0.00 | 0.00 | 0.00 | 99 | 984.3 |
| 20260901082306 | 66 | 226 | 0.0 | 0.0 | 0.00 | 0.00 | 0.00 | 99 | 984.3 |
| 20260901081757 | 65 | 226 | 0.0 | 0.0 | 0.00 | 0.00 | 0.00 | 99 | 984.2 |
| 20260901081252 | 65 | 226 | 0.0 | 0.0 | 0.00 | 0.00 | 0.00 | 99 | 984.1 |
| 20260901080747 | 65 | 226 | 0.0 | 0.0 | 0.00 | 0.00 | 0.00 | 99 | 984.1 |
| 20260901080246 | 66 | 226 | 0.0 | 0.0 | 0.00 | 0.00 | 0.00 | 99 | 984.2 |
| 20260901075741 | 66 | 226 | 0.0 | 0.0 | 0.00 | 0.00 | 0.00 | 99 | 984.1 |
| 20260901075236 | 66 | 226 | 0.0 | 0.0 | 0.00 | 0.00 | 0.00 | 99 | 984.4 |
| 20260901074735 | 66 | 226 | 0.0 | 0.0 | 0.00 | 0.00 | 0.00 | 99 | 984.3 |
| 20260901074230 | 66 | 226 | 0.0 | 0.0 | 0.00 | 0.00 | 0.00 | 99 | 984.4 |
| 20260901073727 | 66 | 226 | 0.0 | 0.0 | 0.00 | 0.00 | 0.00 | 99 | 984.2 |
| 20260901073222 | 66 | 226 | 0.0 | 0.0 | 0.00 | 0.00 | 0.00 | 99 | 984.3 |
| 20260901072717 | 66 | 226 | 0.0 | 0.0 | 0.00 | 0.00 | 0.00 | 99 | 984.3 |
| 20260901072212 | 66 | 226 | 0.0 | 0.0 | 0.00 | 0.00 | 0.00 | 99 | 984.2 |
| 20260901071707 | 66 | 226 | 0.0 | 0.0 | 0.00 | 0.00 | 0.00 | 99 | 984.2 |
| 20260901071207 | 66 | 226 | 0.0 | 0.0 | 0.00 | 0.00 | 0.00 | 99 | 984.4 |
| 20260901070700 | 67 | 226 | 0.0 | 0.0 | 0.00 | 0.00 | 0.00 | 99 | 984.5 |
| 20260901070156 | 66 | 226 | 0.0 | 0.0 | 0.00 | 0.00 | 0.00 | 99 | 984.5 |
| 20260901065655 | 66 | 226 | 0.0 | 0.0 | 0.00 | 0.00 | 0.00 | 99 | 984.3 |
| 20260901065150 | 66 | 226 | 0.0 | 0.0 | 0.00 | 0.00 | 0.00 | 99 | 984.5 |
| 20260901064647 | 66 | 226 | 0.0 | 0.0 | 0.00 | 0.00 | 0.00 | 99 | 984.3 |
| 20260901064143 | 67 | 226 | 0.0 | 0.0 | 0.00 | 0.00 | 0.00 | 99 | 984.4 |
| 20260901063640 | 66 | 226 | 0.0 | 0.0 | 0.00 | 0.00 | 0.00 | 99 | 984.5 |
| 20260901063135 | 66 | 226 | 0.0 | 0.0 | 0.00 | 0.00 | 0.00 | 99 | 984.3 |
| 20260901062631 | 66 | 226 | 0.0 | 0.0 | 0.00 | 0.00 | 0.00 | 99 | 984.5 |
| 20260901062127 | 66 | 226 | 0.0 | 0.0 | 0.00 | 0.00 | 0.00 | 99 | 984.4 |
| 20260901061623 | 66 | 226 | 0.0 | 0.0 | 0.00 | 0.00 | 0.00 | 99 | 984.3 |
| 20260901061117 | 66 | 226 | 0.0 | 0.0 | 0.00 | 0.00 | 0.00 | 99 | 984.2 |
| 20260901060617 | 66 | 226 | 0.0 | 0.0 | 0.00 | 0.00 | 0.00 | 99 | 984.3 |
| 20260901060113 | 66 | 226 | 0.0 | 0.0 | 0.00 | 0.00 | 0.00 | 99 | 984.4 |
| 20260901055613 | 66 | 226 | 0.0 | 0.0 | 0.00 | 0.00 | 0.00 | 99 | 984.5 |
| 20260901055110 | 66 | 226 | 0.0 | 0.0 | 0.00 | 0.00 | 0.00 | 99 | 984.5 |
| 20260901054607 | 66 | 226 | 0.0 | 0.0 | 0.00 | 0.00 | 0.00 | 99 | 984.6 |
| 20260901054103 | 66 | 226 | 0.0 | 0.0 | 0.00 | 0.00 | 0.00 | 99 | 984.4 |
| 20260901053559 | 66 | 226 | 0.0 | 0.0 | 0.00 | 0.00 | 0.00 | 99 | 984.5 |
| 20260901053054 | 66 | 226 | 0.0 | 0.0 | 0.00 | 0.00 | 0.00 | 99 | 984.6 |
| 20260901052549 | 66 | 226 | 0.0 | 0.0 | 0.00 | 0.00 | 0.00 | 99 | 984.7 |
| 20260901052044 | 66 | 226 | 0.0 | 0.0 | 0.00 | 0.00 | 0.00 | 99 | 984.8 |
| 20260901051539 | 66 | 226 | 0.0 | 0.0 | 0.00 | 0.00 | 0.00 | 99 | 984.6 |
| 20260901051038 | 66 | 226 | 0.0 | 0.0 | 0.00 | 0.00 | 0.00 | 99 | 984.6 |
| 20260901050533 | 66 | 226 | 0.0 | 0.0 | 0.00 | 0.00 | 0.00 | 99 | 984.5 |
| 20260901050028 | 67 | 226 | 0.0 | 0.0 | 0.00 | 0.00 | 0.00 | 99 | 984.4 |
| 20260901045523 | 67 | 226 | 0.0 | 0.0 | 0.00 | 0.00 | 0.00 | 99 | 984.5 |
| 20260901045023 | 67 | 226 | 0.0 | 0.0 | 0.00 | 0.00 | 0.00 | 99 | 984.6 |
| 20260901044519 | 67 | 226 | 0.0 | 0.0 | 0.00 | 0.00 | 0.00 | 99 | 984.7 |
| 20260901044015 | 67 | 226 | 0.0 | 0.0 | 0.00 | 0.00 | 0.00 | 99 | 984.6 |
| 20260901043510 | 67 | 226 | 0.0 | 0.0 | 0.00 | 0.00 | 0.00 | 99 | 984.5 |
| 20260901043006 | 67 | 226 | 0.0 | 0.0 | 0.00 | 0.00 | 0.00 | 99 | 984.4 |
| 20260901042505 | 67 | 226 | 0.0 | 0.0 | 0.00 | 0.00 | 0.00 | 99 | 984.7 |
| 20260901042001 | 67 | 226 | 0.0 | 0.0 | 0.00 | 0.00 | 0.00 | 99 | 984.6 |
| 20260901041500 | 67 | 226 | 0.0 | 0.0 | 0.00 | 0.00 | 0.00 | 99 | 984.8 |
| 20260901040955 | 68 | 226 | 0.0 | 0.0 | 0.00 | 0.00 | 0.00 | 99 | 984.8 |
| 20260901040450 | 68 | 226 | 0.0 | 0.0 | 0.00 | 0.00 | 0.00 | 99 | 985.0 |
| 20260901035949 | 67 | 226 | 0.0 | 0.0 | 0.00 | 0.05 | 0.05 | 99 | 984.8 |
| 20260901035448 | 67 | 226 | 0.0 | 0.0 | 0.00 | 0.05 | 0.05 | 99 | 984.9 |
| 20260901034947 | 68 | 226 | 0.0 | 0.0 | 0.00 | 0.05 | 0.05 | 99 | 985.0 |
| 20260901034446 | 68 | 226 | 0.0 | 0.0 | 0.00 | 0.05 | 0.05 | 99 | 985.0 |
| 20260901033941 | 68 | 226 | 0.0 | 0.0 | 0.00 | 0.05 | 0.05 | 99 | 985.0 |
| 20260901033440 | 68 | 226 | 0.0 | 0.0 | 0.00 | 0.05 | 0.05 | 99 | 985.1 |
| 20260901032939 | 68 | 226 | 0.0 | 0.0 | 0.00 | 0.05 | 0.05 | 99 | 985.0 |
| 20260901032433 | 68 | 226 | 0.0 | 0.0 | 0.00 | 0.05 | 0.05 | 99 | 985.0 |
| 20260901031929 | 68 | 226 | 0.0 | 0.0 | 0.00 | 0.05 | 0.05 | 99 | 985.1 |
| 20260901031424 | 68 | 226 | 0.0 | 0.0 | 0.00 | 0.05 | 0.05 | 99 | 985.4 |
| 20260901030924 | 68 | 226 | 0.0 | 0.0 | 0.00 | 0.05 | 0.05 | 99 | 985.1 |
| 20260901030420 | 68 | 226 | 0.0 | 0.0 | 0.00 | 0.05 | 0.05 | 99 | 985.1 |
| 20260901025918 | 68 | 226 | 0.0 | 0.0 | 0.00 | 0.05 | 0.05 | 99 | 985.2 |
| 20260901025414 | 68 | 226 | 0.0 | 0.0 | 0.00 | 0.05 | 0.05 | 99 | 985.3 |
| 20260901024908 | 69 | 226 | 0.0 | 0.0 | 0.00 | 0.05 | 0.05 | 99 | 985.1 |
| 20260901024407 | 68 | 226 | 0.0 | 0.0 | 0.00 | 0.05 | 0.05 | 99 | 985.3 |
| 20260901023906 | 68 | 226 | 0.0 | 0.0 | 0.00 | 0.05 | 0.05 | 99 | 985.3 |
| 20260901023401 | 68 | 226 | 0.0 | 0.0 | 0.00 | 0.05 | 0.05 | 99 | 985.2 |
| 20260901022856 | 69 | 226 | 0.0 | 0.0 | 0.00 | 0.05 | 0.05 | 99 | 985.3 |
| 20260901022352 | 69 | 226 | 0.0 | 0.0 | 0.00 | 0.05 | 0.05 | 99 | 985.2 |
| 20260901021847 | 69 | 226 | 0.0 | 0.0 | 0.00 | 0.05 | 0.05 | 99 | 985.1 |
| 20260901021343 | 69 | 226 | 0.0 | 0.0 | 0.00 | 0.05 | 0.05 | 99 | 985.1 |
| 20260901020837 | 69 | 226 | 0.0 | 0.0 | 0.00 | 0.05 | 0.05 | 99 | 985.1 |
| 20260901020332 | 69 | 226 | 0.0 | 0.0 | 0.00 | 0.05 | 0.05 | 99 | 985.1 |
| 20260901015827 | 69 | 226 | 0.0 | 0.0 | 0.00 | 0.05 | 0.05 | 99 | 985.1 |
| 20260901015324 | 69 | 226 | 0.0 | 0.0 | 0.00 | 0.05 | 0.05 | 99 | 984.9 |
| 20260901014822 | 69 | 226 | 0.0 | 0.0 | 0.00 | 0.05 | 0.05 | 99 | 984.8 |
| 20260901014319 | 68 | 226 | 0.0 | 0.0 | 0.00 | 0.05 | 0.05 | 99 | 985.0 |
| 20260901013814 | 69 | 226 | 0.0 | 0.0 | 0.00 | 0.05 | 0.05 | 99 | 985.0 |
| 20260901013310 | 68 | 226 | 0.0 | 0.0 | 0.00 | 0.05 | 0.05 | 99 | 984.9 |
| 20260901012805 | 68 | 226 | 0.0 | 0.0 | 0.00 | 0.05 | 0.05 | 99 | 985.0 |
| 20260901012306 | 69 | 226 | 0.0 | 0.0 | 0.00 | 0.05 | 0.05 | 99 | 984.8 |
| 20260901011800 | 69 | 226 | 0.0 | 0.0 | 0.05 | 0.05 | 0.05 | 99 | 984.8 |
| 20260901011255 | 69 | 226 | 0.0 | 0.0 | 0.05 | 0.05 | 0.05 | 99 | 984.6 |
| 20260901010749 | 69 | 226 | 0.0 | 0.0 | 0.00 | 0.04 | 0.04 | 99 | 984.8 |
| 20260901010244 | 69 | 226 | 0.0 | 0.0 | 0.00 | 0.04 | 0.04 | 99 | 984.7 |
| 20260901005743 | 69 | 226 | 0.0 | 0.0 | 0.00 | 0.04 | 0.04 | 99 | 984.4 |
| 20260901005238 | 69 | 226 | 0.0 | 0.0 | 0.00 | 0.04 | 0.04 | 99 | 984.5 |
| 20260901004732 | 69 | 226 | 0.0 | 0.0 | 0.00 | 0.04 | 0.04 | 99 | 984.5 |
| 20260901004227 | 69 | 226 | 0.0 | 0.0 | 0.00 | 0.04 | 0.04 | 99 | 984.3 |
| 20260901003728 | 69 | 226 | 0.0 | 0.0 | 0.00 | 0.04 | 0.04 | 99 | 984.3 |
| 20260901003227 | 69 | 226 | 0.0 | 0.0 | 0.00 | 0.04 | 0.04 | 99 | 984.2 |
| 20260901002721 | 70 | 226 | 0.0 | 0.0 | 0.00 | 0.04 | 0.04 | 99 | 984.1 |
| 20260901002216 | 70 | 226 | 0.0 | 0.0 | 0.00 | 0.04 | 0.04 | 99 | 984.2 |
| 20260901001712 | 70 | 226 | 0.0 | 0.0 | 0.00 | 0.04 | 0.04 | 99 | 984.2 |
| 20260901001207 | 70 | 226 | 0.0 | 0.0 | 0.00 | 0.04 | 0.04 | 99 | 984.1 |
| 20260901000702 | 70 | 226 | 0.0 | 0.0 | 0.00 | 0.04 | 0.04 | 99 | 984.4 |
| 20260901000157 | 70 | 226 | 0.0 | 0.0 | 0.00 | 0.04 | 0.04 | 99 | 984.2 |
| 20260831235655 | 70 | 226 | 0.0 | 0.0 | 0.00 | 0.04 | 0.04 | 99 | 984.3 |
| 20260831235151 | 71 | 226 | 0.0 | 0.0 | 0.00 | 0.04 | 0.04 | 99 | 984.1 |
| 20260831234651 | 71 | 226 | 0.0 | 0.0 | 0.00 | 0.04 | 0.04 | 99 | 984.1 |
| 20260831234146 | 71 | 226 | 0.0 | 0.0 | 0.00 | 0.04 | 0.04 | 99 | 984.3 |
| 20260831233641 | 71 | 226 | 0.0 | 0.0 | 0.00 | 0.04 | 0.04 | 99 | 984.4 |
| 20260831233137 | 72 | 226 | 0.0 | 0.0 | 0.00 | 0.04 | 0.04 | 99 | 984.3 |
| 20260831232632 | 72 | 226 | 0.0 | 0.0 | 0.00 | 0.04 | 0.04 | 99 | 984.2 |
| 20260831232128 | 72 | 226 | 0.0 | 1.0 | 0.00 | 0.04 | 0.04 | 99 | 984.5 |
| 20260831231619 | 72 | 226 | 0.0 | 0.0 | 0.00 | 0.04 | 0.04 | 99 | 984.5 |
| 20260831231114 | 73 | 225 | 0.0 | 1.0 | 0.00 | 0.04 | 0.04 | 99 | 984.4 |
| 20260831230609 | 73 | 237 | 0.0 | 1.0 | 0.00 | 0.04 | 0.04 | 99 | 984.7 |
| 20260831230104 | 73 | 302 | 1.0 | 2.0 | 0.00 | 0.04 | 0.04 | 99 | 984.8 |
| 20260831225559 | 73 | 89 | 0.0 | 3.0 | 0.00 | 0.04 | 0.04 | 98 | 984.8 |
| 20260831225058 | 73 | 229 | 1.0 | 2.0 | 0.00 | 0.04 | 0.04 | 99 | 985.0 |
| 20260831224553 | 73 | 229 | 0.0 | 0.0 | 0.00 | 0.04 | 0.04 | 99 | 984.9 |
| 20260831224049 | 72 | 229 | 0.0 | 0.0 | 0.00 | 0.04 | 0.04 | 99 | 984.8 |
| 20260831223544 | 72 | 229 | 0.0 | 0.0 | 0.00 | 0.04 | 0.04 | 99 | 984.8 |
| 20260831223040 | 72 | 229 | 0.0 | 0.0 | 0.00 | 0.04 | 0.04 | 99 | 984.5 |
| 20260831222536 | 72 | 229 | 0.0 | 0.0 | 0.00 | 0.04 | 0.04 | 99 | 984.5 |
| 20260831222036 | 72 | 229 | 0.0 | 0.0 | 0.00 | 0.04 | 0.04 | 99 | 984.6 |
| 20260831221532 | 71 | 229 | 0.0 | 0.0 | 0.00 | 0.04 | 0.04 | 99 | 984.7 |
| 20260831221033 | 72 | 229 | 0.0 | 0.0 | 0.00 | 0.04 | 0.04 | 99 | 984.9 |
| 20260831220528 | 72 | 229 | 0.0 | 0.0 | 0.00 | 0.04 | 0.04 | 99 | 985.0 |
| 20260831220023 | 72 | 229 | 0.0 | 0.0 | 0.00 | 0.04 | 0.04 | 99 | 984.7 |
| 20260831215519 | 72 | 229 | 0.0 | 0.0 | 0.00 | 0.04 | 0.04 | 99 | 984.7 |
| 20260831215014 | 72 | 229 | 0.0 | 1.0 | 0.00 | 0.04 | 0.04 | 99 | 984.7 |
| 20260831214512 | 72 | 229 | 0.0 | 0.0 | 0.07 | 0.04 | 0.04 | 99 | 984.9 |
| 20260831214007 | 72 | 229 | 0.0 | 0.0 | 0.12 | 0.04 | 0.04 | 99 | 985.1 |
| 20260831213504 | 73 | 229 | 0.0 | 0.0 | 0.05 | 0.03 | 0.03 | 98 | 985.1 |
| 20260831213004 | 73 | 229 | 0.0 | 0.0 | 0.07 | 0.02 | 0.02 | 97 | 985.1 |
| 20260831212500 | 73 | 229 | 0.0 | 0.0 | 0.12 | 0.02 | 0.02 | 96 | 985.2 |
| 20260831211954 | 74 | 229 | 1.0 | 2.0 | 0.05 | 0.01 | 0.01 | 95 | 985.3 |
| 20260831211449 | 75 | 229 | 1.0 | 1.0 | 0.00 | 0.00 | 0.00 | 91 | 985.5 |
| 20260831210948 | 77 | 229 | 0.0 | 1.0 | 0.00 | 0.00 | 0.00 | 84 | 985.4 |
| 20260831210444 | 79 | 46 | 1.0 | 10.0 | 0.00 | 0.00 | 0.00 | 80 | 985.2 |
| 20260831205940 | 80 | 246 | 9.0 | 13.0 | 0.00 | 0.00 | 0.00 | 79 | 985.0 |
| 20260831205435 | 80 | 116 | 0.0 | 1.0 | 0.00 | 0.00 | 0.00 | 89 | 984.4 |